• In India
  • List of Countries
  • For 7 days
  • Water Temperature
  • Satellite Maps
  • Weather Map
  • Weather Widgets
  • user-avatar
    Login

    Hourly Weather Zaliznytsya

    Today, 16 January, Wednesday

    Time Temperature Precipitation Wind Pressure Humidity
    00:00 -8°C° 0 mm 5 mps 730 mmHg 90%
    01:00 -8°C° 0 mm 4 mps 730 mmHg 91%
    02:00 -7°C° 0 mm 3 mps 729 mmHg 93%
    03:00 -5°C° 0.3 mm 2 mps 728 mmHg 94%
    04:00 -5°C° 0.3 mm 2 mps 728 mmHg 96%
    05:00 -5°C° 0.3 mm 2 mps 727 mmHg 97%
    06:00 -5°C° 0.6 mm 2 mps 727 mmHg 97%
    07:00 -5°C° 0.6 mm 2 mps 727 mmHg 97%
    08:00 -5°C° 0 mm 2 mps 728 mmHg 96%
    09:00 -5°C° 0.1 mm 3 mps 729 mmHg 95%
    10:00 -5°C° 0.1 mm 3 mps 730 mmHg 93%
    11:00 -5°C° 0.1 mm 3 mps 732 mmHg 91%
    12:00 -4°C° 0 mm 3 mps 733 mmHg 90%
    13:00 -4°C° 0 mm 4 mps 734 mmHg 88%
    14:00 -4°C° 0 mm 4 mps 734 mmHg 87%
    15:00 -5°C° 0 mm 3 mps 735 mmHg 88%
    16:00 -6°C° 0 mm 3 mps 735 mmHg 90%
    17:00 -6°C° 0 mm 2 mps 736 mmHg 92%
    18:00 -7°C° 0 mm 2 mps 736 mmHg 92%
    19:00 -7°C° 0 mm 2 mps 736 mmHg 92%
    20:00 -7°C° 0 mm 2 mps 737 mmHg 93%
    21:00 -7°C° 0 mm 2 mps 737 mmHg 93%
    22:00 -7°C° 0 mm 2 mps 737 mmHg 93%
    23:00 -7°C° 0 mm 3 mps 737 mmHg 93%

    Tomorrow, 17 January, Thursday

    Time Temperature Precipitation Wind Pressure Humidity
    00:00 -6°C° 0 mm 3 mps 737 mmHg 94%
    01:00 -4°C° 0 mm 3 mps 736 mmHg 95%
    02:00 -1°C° 0 mm 3 mps 736 mmHg 95%
    03:00 -2°C° 0 mm 4 mps 736 mmHg 96%
    04:00 -2°C° 0 mm 4 mps 736 mmHg 96%
    05:00 -1°C° 0 mm 4 mps 736 mmHg 97%
    06:00 -1°C° 0 mm 4 mps 736 mmHg 95%
    07:00 -1°C° 0 mm 5 mps 735 mmHg 92%
    08:00 -1°C° 0 mm 5 mps 735 mmHg 90%
    09:00 -1°C° 0 mm 5 mps 735 mmHg 88%
    10:00 -2°C° 0 mm 6 mps 735 mmHg 85%
    11:00 -2°C° 0 mm 6 mps 735 mmHg 83%
    12:00 -1°C° 0 mm 6 mps 734 mmHg 84%
    13:00 -1°C° 0 mm 6 mps 734 mmHg 84%
    14:00 -1°C° 0 mm 6 mps 734 mmHg 85%
    15:00 -1°C° 0 mm 6 mps 734 mmHg 85%
    16:00 0°C° 0 mm 5 mps 734 mmHg 85%
    17:00 0°C° 0 mm 5 mps 734 mmHg 85%
    18:00 -1°C° 0 mm 5 mps 734 mmHg 85%
    19:00 -1°C° 0 mm 5 mps 734 mmHg 85%
    20:00 -1°C° 0 mm 4 mps 735 mmHg 85%
    21:00 -1°C° 0 mm 4 mps 735 mmHg 86%
    22:00 -2°C° 0 mm 4 mps 735 mmHg 86%
    23:00 -1°C° 0 mm 3 mps 735 mmHg 87%

    Day after tomorrow, 18 January, Friday

    Time Temperature Precipitation Wind Pressure Humidity
    00:00 -1°C° 0 mm 3 mps 735 mmHg 87%
    01:00 -1°C° 0 mm 3 mps 735 mmHg 88%
    02:00 -1°C° 0 mm 3 mps 735 mmHg 88%
    03:00 -1°C° 0 mm 3 mps 735 mmHg 88%
    04:00 -1°C° 0 mm 3 mps 734 mmHg 88%
    05:00 -2°C° 0 mm 4 mps 734 mmHg 89%
    06:00 -2°C° 0 mm 4 mps 734 mmHg 90%
    07:00 -1°C° 0 mm 4 mps 734 mmHg 90%
    08:00 -1°C° 0 mm 4 mps 734 mmHg 91%
    09:00 -1°C° 0.1 mm 4 mps 735 mmHg 93%
    10:00 -1°C° 0.1 mm 4 mps 735 mmHg 95%
    11:00 0°C° 0.1 mm 4 mps 735 mmHg 96%
    12:00 -1°C° 0.3 mm 4 mps 736 mmHg 96%
    13:00 -1°C° 0.3 mm 4 mps 736 mmHg 95%
    14:00 -1°C° 0.3 mm 5 mps 736 mmHg 94%
    15:00 -1°C° 0 mm 5 mps 736 mmHg 91%
    16:00 -2°C° 0 mm 5 mps 737 mmHg 88%
    17:00 -3°C° 0 mm 4 mps 737 mmHg 85%
    18:00 -4°C° 0 mm 5 mps 738 mmHg 85%
    19:00 -4°C° 0 mm 5 mps 739 mmHg 85%
    20:00 -4°C° 0 mm 5 mps 739 mmHg 86%
    21:00 -5°C° 0 mm 5 mps 740 mmHg 85%
    22:00 -5°C° 0 mm 4 mps 741 mmHg 84%
    23:00 -7°C° 0 mm 4 mps 742 mmHg 82%

    19 January, Saturday

    Time Temperature Precipitation Wind Pressure Humidity
    00:00 -8°C° 0 mm 4 mps 743 mmHg 85%
    01:00 -7°C° 0 mm 3 mps 743 mmHg 88%
    02:00 -7°C° 0 mm 3 mps 744 mmHg 91%
    03:00 -7°C° 0 mm 3 mps 744 mmHg 91%
    04:00 -7°C° 0 mm 3 mps 744 mmHg 92%
    05:00 -8°C° 0 mm 3 mps 745 mmHg 92%
    06:00 -8°C° 0 mm 3 mps 745 mmHg 92%
    07:00 -8°C° 0 mm 3 mps 746 mmHg 93%
    08:00 -8°C° 0 mm 3 mps 746 mmHg 93%
    09:00 -8°C° 0 mm 3 mps 746 mmHg 92%
    10:00 -7°C° 0 mm 3 mps 746 mmHg 90%
    11:00 -6°C° 0 mm 3 mps 747 mmHg 89%
    12:00 -6°C° 0 mm 3 mps 747 mmHg 89%
    13:00 -4°C° 0 mm 2 mps 747 mmHg 88%
    14:00 -4°C° 0 mm 2 mps 747 mmHg 88%
    15:00 -4°C° 0 mm 2 mps 746 mmHg 89%
    16:00 -5°C° 0 mm 2 mps 746 mmHg 90%
    17:00 -6°C° 0 mm 2 mps 746 mmHg 91%
    18:00 -6°C° 0 mm 2 mps 746 mmHg 91%
    19:00 -7°C° 0 mm 2 mps 746 mmHg 90%
    20:00 -7°C° 0 mm 2 mps 746 mmHg 90%
    21:00 -7°C° 0 mm 2 mps 746 mmHg 89%
    22:00 -7°C° 0 mm 2 mps 746 mmHg 88%
    23:00 -8°C° 0 mm 2 mps 746 mmHg 88%

    20 January, Sunday

    Time Temperature Precipitation Wind Pressure Humidity
    00:00 -8°C° 0 mm 2 mps 746 mmHg 87%
    01:00 -8°C° 0 mm 2 mps 746 mmHg 86%
    02:00 -8°C° 0 mm 2 mps 746 mmHg 85%
    03:00 -8°C° 0 mm 2 mps 745 mmHg 85%
    04:00 -8°C° 0 mm 2 mps 745 mmHg 85%
    05:00 -8°C° 0 mm 2 mps 744 mmHg 85%
    06:00 -8°C° 0 mm 2 mps 744 mmHg 85%
    07:00 -7°C° 0 mm 2 mps 744 mmHg 86%
    08:00 -7°C° 0 mm 2 mps 744 mmHg 86%
    09:00 -8°C° 0.3 mm 3 mps 744 mmHg 89%
    10:00 -7°C° 0.3 mm 3 mps 743 mmHg 91%
    11:00 -7°C° 0.3 mm 3 mps 743 mmHg 94%
    12:00 -7°C° 0.5 mm 3 mps 743 mmHg 94%
    13:00 -7°C° 0.5 mm 3 mps 742 mmHg 93%
    14:00 -6°C° 0.5 mm 3 mps 742 mmHg 93%
    15:00 -6°C° 0.3 mm 2 mps 742 mmHg 94%
    16:00 -6°C° 0.3 mm 2 mps 741 mmHg 95%
    17:00 -4°C° 0.3 mm 1 mps 741 mmHg 96%
    18:00 -4°C° 0.1 mm 1 mps 741 mmHg 96%
    19:00 -6°C° 0.1 mm 1 mps 741 mmHg 96%
    20:00 -6°C° 0.1 mm 1 mps 741 mmHg 96%
    21:00 -6°C° 0 mm 1 mps 741 mmHg 97%
    22:00 -6°C° 0 mm 1 mps 742 mmHg 97%
    23:00 -8°C° 0 mm 2 mps 742 mmHg 97%

    21 January, Monday

    Time Temperature Precipitation Wind Pressure Humidity
    00:00 -7°C° 0 mm 2 mps 742 mmHg 97%
    01:00 -7°C° 0 mm 2 mps 742 mmHg 97%
    02:00 -7°C° 0 mm 2 mps 742 mmHg 97%
    03:00 -8°C° 0 mm 2 mps 742 mmHg 96%
    04:00 -9°C° 0 mm 2 mps 742 mmHg 96%
    05:00 -9°C° 0 mm 2 mps 742 mmHg 96%
    06:00 -10°C° 0 mm 3 mps 742 mmHg 95%
    07:00 -10°C° 0 mm 3 mps 742 mmHg 94%
    08:00 -10°C° 0 mm 3 mps 742 mmHg 92%
    09:00 -10°C° 0 mm 4 mps 742 mmHg 92%
    10:00 -10°C° 0 mm 5 mps 742 mmHg 92%
    11:00 -8°C° 0 mm 5 mps 742 mmHg 91%
    12:00 -8°C° 0.1 mm 6 mps 742 mmHg 88%
    13:00 -8°C° 0.1 mm 6 mps 743 mmHg 85%
    14:00 -6°C° 0.1 mm 6 mps 743 mmHg 82%
    15:00 -8°C° 0 mm 6 mps 743 mmHg 82%
    16:00 -8°C° 0 mm 6 mps 744 mmHg 81%
    17:00 -8°C° 0 mm 6 mps 744 mmHg 81%
    18:00 -9°C° 0 mm 6 mps 745 mmHg 83%
    19:00 -10°C° 0 mm 5 mps 745 mmHg 84%
    20:00 -11°C° 0 mm 5 mps 746 mmHg 86%
    21:00 -11°C° 0 mm 4 mps 747 mmHg 88%
    22:00 -11°C° 0 mm 4 mps 747 mmHg 91%
    23:00 -12°C° 0 mm 3 mps 748 mmHg 93%
    Show more